Location: Emory University Observatory
(33.7903°N, 84.3267°W)
Time: 11:11:27
(UTC-04:00)

Tiangong 1 - Pass Details

Date: 15 October 2017
Orbit: 294 x 321 km, 42.8° (Epoch: 17 October)

Event Time Altitude Azimuth Distance (km) Brightness Sun altitude
Rises 20:14:34 0° 302° (WNW) 2,037 5.8 -15.6°
Reaches altitude 10° 20:16:34 10° 307° (NW) 1,202 4.4 -16.0°
Enters shadow 20:19:13 55° 26° (NNE) 376 0.8 -16.6°
